�N����,����,�~����,�C��,���x,�C��,����,���ϕ���,�ő�u�ԕ���,�ő厞����,���˗�,�I�_���x,�n�����x,�ő啗���N��,DTYPE
"21/06/28","00:10",0.0,20.3,89.0,1001.9,303.7,1.2,1.6,316.5,0.00,18.5,22.8,"00:00:16",1
"21/06/28","00:20",0.0,20.4,89.3,1001.9,309.3,1.3,1.8,314.5,0.00,18.6,22.8,"00:15:04",1
"21/06/28","00:30",0.0,20.2,89.7,1002.2,302.3,1.0,1.3,327.2,0.00,18.5,22.7,"00:21:12",1
"21/06/28","00:40",0.0,20.0,89.8,1001.7,304.6,1.0,1.4,321.1,0.00,18.3,22.8,"00:30:02",1
"21/06/28","00:50",0.0,19.9,90.2,1001.9,329.9,1.0,1.4,326.2,0.00,18.3,22.7,"00:49:52",1
"21/06/28","01:00",0.0,19.7,90.4,1001.9,320.4,1.3,1.8,330.2,0.00,18.1,22.6,"00:52:48",1
"21/06/28","01:10",0.0,19.4,90.6,1001.9,318.9,0.8,1.1,309.5,0.00,17.9,22.8,"01:00:24",1
"21/06/28","01:20",0.0,19.3,90.9,1001.9,319.1,1.1,1.4,323.4,0.00,17.8,22.4,"01:15:04",1
"21/06/28","01:30",0.0,19.2,91.0,1001.5,314.2,1.1,1.3,317.7,0.00,17.7,22.6,"01:20:08",1
"21/06/28","01:40",0.0,19.1,91.3,1001.7,310.9,1.1,1.4,316.1,0.00,17.7,22.5,"01:31:28",1
"21/06/28","01:50",0.0,19.2,91.5,1001.2,299.9,1.1,1.7,306.6,0.00,17.8,22.4,"01:45:04",1
"21/06/28","02:00",0.0,19.2,91.8,1001.5,311.5,1.1,1.4,319.3,0.00,17.9,22.4,"01:53:36",1
"21/06/28","02:10",0.0,19.2,91.9,1001.2,304.2,1.1,1.6,301.7,0.00,17.9,22.4,"02:04:56",1
"21/06/28","02:20",0.0,19.2,92.1,1001.2,322.6,1.2,1.7,319.4,0.00,17.9,22.3,"02:18:48",1
"21/06/28","02:30",0.0,19.0,92.2,1001.5,311.2,0.8,1.2,334.4,0.00,17.7,22.6,"02:20:08",1
"21/06/28","02:40",0.0,19.0,92.5,1001.2,327.0,0.8,1.7,335.3,0.00,17.8,22.2,"02:34:16",1
"21/06/28","02:50",0.0,19.0,92.6,1001.2,305.7,0.8,1.3,325.3,0.00,17.8,22.3,"02:40:40",1
"21/06/28","03:00",0.0,19.0,92.7,1001.5,320.3,1.1,1.7,326.5,0.00,17.8,22.4,"02:56:40",1
"21/06/28","03:10",0.0,18.8,92.8,1001.2,322.2,1.0,1.4,324.1,0.00,17.7,22.3,"03:03:36",1
"21/06/28","03:20",0.0,18.8,93.0,1001.2,301.7,1.2,1.4,324.3,0.00,17.7,22.2,"03:18:08",1
"21/06/28","03:30",0.0,18.7,93.1,1001.2,317.6,1.2,1.6,321.8,0.00,17.6,22.2,"03:23:52",1
"21/06/28","03:40",0.0,18.7,93.3,1001.2,308.3,1.1,2.1,333.8,0.00,17.6,22.1,"03:33:28",1
"21/06/28","03:50",0.0,18.8,93.3,1001.5,318.0,1.1,1.7,332.4,0.00,17.7,22.0,"03:41:20",1
"21/06/28","04:00",0.0,18.9,93.5,1001.5,327.6,1.2,2.4,332.8,0.00,17.9,22.0,"03:56:16",1
"21/06/28","04:10",0.0,19.0,93.5,1001.2,345.8,0.8,1.7,332.8,0.00,18.0,22.2,"04:02:24",1
"21/06/28","04:20",0.0,18.8,93.5,1001.2,307.5,1.0,1.8,338.4,0.00,17.8,21.9,"04:19:36",1
"21/06/28","04:30",0.0,18.8,93.6,1001.7,295.5,0.6,1.2,259.4,0.00,17.8,21.9,"04:25:12",1
"21/06/28","04:40",0.0,18.9,93.7,1001.5,314.0,1.3,1.9,334.6,0.00,17.9,21.8,"04:37:20",1
"21/06/28","04:50",0.0,19.1,93.7,1001.7,327.2,1.1,1.6,336.1,0.00,18.1,22.1,"04:42:08",1
"21/06/28","05:00",0.0,19.2,93.7,1001.5,323.5,1.0,1.6,317.0,0.00,18.2,22.0,"04:58:48",1
"21/06/28","05:10",0.0,19.3,93.7,1001.5,334.1,1.2,2.7,336.1,0.00,18.3,21.8,"05:08:24",1
"21/06/28","05:20",0.0,19.4,93.7,1001.5,295.7,1.2,1.8,323.8,0.00,18.4,21.8,"05:10:32",1
"21/06/28","05:30",0.0,19.5,93.7,1001.5,320.3,1.1,1.7,335.1,0.00,18.5,21.9,"05:23:20",1
"21/06/28","05:40",0.0,19.5,93.8,1001.5,313.1,1.3,2.4,331.3,0.00,18.5,22.2,"05:36:48",1
"21/06/28","05:50",0.0,19.7,93.7,1001.2,323.4,1.2,2.0,335.3,0.01,18.7,21.9,"05:41:52",1
"21/06/28","06:00",0.0,19.9,93.7,1001.2,318.7,0.7,1.4,323.3,0.01,18.9,21.9,"05:51:12",1
"21/06/28","06:10",0.0,20.3,93.6,1001.7,317.5,0.8,1.4,334.1,0.03,19.3,22.0,"06:09:28",1
"21/06/28","06:20",0.0,21.0,93.3,1001.7,348.0,0.7,1.6,336.2,0.04,19.9,21.8,"06:19:36",1
"21/06/28","06:30",0.0,21.0,93.1,1001.0,346.4,1.0,2.0,340.0,0.05,19.9,21.9,"06:22:32",1
"21/06/28","06:40",0.0,21.6,92.4,1001.2,286.0,0.3,0.9,359.6,0.07,20.4,21.7,"06:30:40",1
"21/06/28","06:50",0.0,22.5,91.9,1001.2,292.7,0.2,0.6,244.2,0.09,21.2,21.9,"06:48:08",1
"21/06/28","07:00",0.0,23.1,91.2,1001.5,228.1,0.1,1.0,333.1,0.11,21.6,21.9,"06:58:00",1
"21/06/28","07:10",0.0,23.5,88.7,1001.5,300.3,0.3,1.2,190.0,0.13,21.6,21.9,"07:09:36",1
"21/06/28","07:20",0.0,23.7,87.8,1001.0,283.4,0.6,1.7,240.1,0.16,21.6,21.9,"07:11:28",1
"21/06/28","07:30",0.0,24.4,84.4,1001.0,10.4,1.0,2.0,14.1,0.20,21.6,22.0,"07:23:20",1
"21/06/28","07:40",0.0,24.7,79.9,1000.5,6.9,0.7,1.4,347.2,0.18,21.0,22.1,"07:30:56",1
"21/06/28","07:50",0.0,25.3,76.7,1000.5,154.6,0.2,1.2,196.2,0.20,21.0,22.0,"07:45:04",1
"21/06/28","08:00",0.0,26.1,74.6,1000.0,23.6,0.3,1.1,54.6,0.25,21.3,21.9,"07:55:20",1
"21/06/28","08:10",0.0,26.5,71.0,999.8,286.5,0.5,1.2,177.8,0.28,20.9,22.2,"08:09:28",1
"21/06/28","08:20",0.0,26.9,68.8,1000.3,353.9,0.3,1.1,175.6,0.27,20.7,22.1,"08:10:40",1
"21/06/28","08:30",0.0,27.0,67.0,1000.5,19.4,0.8,1.9,350.7,0.29,20.4,22.1,"08:23:20",1
"21/06/28","08:40",0.0,27.3,65.8,1000.3,40.2,1.1,2.5,351.8,0.33,20.4,22.3,"08:33:52",1
"21/06/28","08:50",0.0,27.7,65.9,1000.8,83.8,0.7,1.9,6.8,0.33,20.8,22.3,"08:40:56",1
"21/06/28","09:00",0.0,28.0,66.2,1000.5,168.8,1.0,2.0,168.3,0.40,21.1,22.2,"08:56:00",1
"21/06/28","09:10",0.0,28.1,64.8,1000.8,176.1,1.0,2.5,123.7,0.37,20.9,22.6,"09:07:36",1
"21/06/28","09:20",0.0,28.0,65.0,1000.5,181.8,1.1,2.7,196.4,0.38,20.8,22.7,"09:12:00",1
"21/06/28","09:30",0.0,28.7,64.7,1000.8,293.5,0.7,2.0,0.8,0.45,21.4,22.5,"09:25:20",1
"21/06/28","09:40",0.0,28.5,62.4,1000.8,160.4,1.1,2.9,130.1,0.34,20.7,22.7,"09:39:28",1
"21/06/28","09:50",0.0,28.3,65.1,1000.3,146.9,1.1,2.4,178.7,0.33,21.2,22.8,"09:44:48",1
"21/06/28","10:00",0.0,28.6,63.2,999.8,129.5,1.3,3.3,140.7,0.45,21.0,23.0,"09:56:08",1
"21/06/28","10:10",0.0,29.2,63.4,999.8,142.9,1.1,4.1,154.5,0.47,21.6,23.1,"10:01:36",1
"21/06/28","10:20",0.0,28.7,61.5,999.6,162.2,1.5,3.1,159.2,0.30,20.6,23.0,"10:12:16",1
"21/06/28","10:30",0.0,28.8,61.8,1000.0,125.1,0.8,1.9,128.6,0.29,20.8,22.9,"10:29:52",1
"21/06/28","10:40",0.0,28.7,63.6,999.3,142.9,1.3,3.3,141.7,0.36,21.2,23.2,"10:33:52",1
"21/06/28","10:50",0.0,29.6,61.7,999.6,150.0,1.3,3.2,142.3,0.54,21.5,23.3,"10:47:04",1
"21/06/28","11:00",0.0,30.3,59.2,999.8,154.7,2.0,3.7,184.2,0.62,21.5,23.2,"10:54:08",1
"21/06/28","11:10",0.0,28.9,60.5,999.6,139.6,1.2,3.9,135.9,0.16,20.5,23.4,"11:00:32",1
"21/06/28","11:20",0.0,28.1,63.1,999.3,163.6,1.2,2.7,135.3,0.16,20.5,23.7,"11:15:36",1
"21/06/28","11:30",0.0,28.4,62.6,999.1,140.3,1.2,3.2,156.1,0.24,20.6,23.6,"11:28:24",1
"21/06/28","11:40",0.0,28.6,62.5,998.6,140.3,1.1,2.5,200.8,0.16,20.8,23.7,"11:30:24",1
"21/06/28","11:50",0.0,28.7,61.7,999.1,98.1,1.1,4.0,132.8,0.19,20.7,23.6,"11:48:24",1
"21/06/28","12:00",0.0,28.3,62.9,998.6,140.3,1.0,4.2,157.6,0.17,20.6,23.7,"11:50:40",1
"21/06/28","12:10",0.0,28.2,62.6,998.9,161.0,1.6,2.8,133.4,0.16,20.4,24.0,"12:03:12",1
"21/06/28","12:20",0.0,28.1,62.5,998.6,147.3,1.6,3.3,151.4,0.15,20.3,23.8,"12:13:36",1
"21/06/28","12:30",0.0,28.2,62.4,998.4,135.9,0.8,2.2,124.5,0.12,20.4,23.7,"12:26:48",1
"21/06/28","12:40",0.0,28.3,61.9,998.2,71.0,1.0,2.5,352.1,0.10,20.3,23.8,"12:34:24",1
"21/06/28","12:50",0.0,28.2,63.0,997.7,140.1,0.6,1.8,131.3,0.08,20.5,23.8,"12:41:04",1
"21/06/28","13:00",0.0,28.2,62.8,997.9,336.4,0.3,1.2,2.2,0.06,20.5,23.7,"12:59:52",1
"21/06/28","13:10",0.0,28.3,63.1,997.4,3.6,0.5,1.4,21.7,0.04,20.6,23.7,"13:01:12",1
"21/06/28","13:20",0.0,27.7,65.3,997.7,143.4,0.6,1.9,126.3,0.03,20.6,23.9,"13:18:16",1
"21/06/28","13:30",0.0,26.9,68.0,997.2,162.7,0.6,1.4,157.9,0.03,20.5,23.8,"13:22:32",1
"21/06/28","13:40",0.2,27.0,70.5,997.4,278.4,0.8,1.8,325.5,0.08,21.2,23.8,"13:36:24",1
"21/06/28","13:50",0.0,26.8,74.2,997.4,331.7,1.3,2.4,345.9,0.16,21.9,23.9,"13:49:12",1
"21/06/28","14:00",0.0,26.4,76.8,997.4,308.1,1.3,2.1,341.9,0.08,22.0,23.9,"13:57:44",1
"21/06/28","14:10",0.0,26.1,78.9,997.7,259.0,1.3,2.8,244.0,0.05,22.2,23.9,"14:03:44",1
"21/06/28","14:20",0.0,25.8,79.4,997.9,254.8,1.0,2.0,242.2,0.06,22.0,24.1,"14:17:44",1
"21/06/28","14:30",0.0,26.0,80.5,997.7,330.9,1.1,2.4,339.0,0.06,22.4,24.0,"14:29:52",1
"21/06/28","14:40",0.2,25.6,81.9,997.9,333.2,1.6,3.7,336.0,0.11,22.3,23.9,"14:30:08",1
"21/06/28","14:50",0.0,26.0,82.6,997.4,294.1,0.7,2.1,337.0,0.14,22.8,24.2,"14:43:12",1
"21/06/28","15:00",0.0,26.3,82.1,997.7,304.7,0.8,1.9,340.4,0.14,23.0,23.9,"14:53:20",1
"21/06/28","15:10",0.0,26.4,81.0,997.4,263.0,1.0,2.0,247.9,0.15,22.9,24.1,"15:09:44",1
"21/06/28","15:20",0.0,26.4,78.9,997.7,283.2,1.5,2.5,336.1,0.11,22.5,24.0,"15:16:24",1
"21/06/28","15:30",0.0,26.6,77.5,997.7,303.5,1.1,2.7,342.9,0.04,22.4,24.0,"15:21:12",1
"21/06/28","15:40",0.2,26.5,76.5,997.2,152.7,0.6,1.2,126.7,0.03,22.1,24.0,"15:38:08",1
"21/06/28","15:50",0.2,26.1,78.4,997.4,238.9,0.8,2.6,206.8,0.01,22.1,24.1,"15:46:24",1
"21/06/28","16:00",0.0,25.8,80.1,997.4,322.3,1.1,2.6,344.8,0.01,22.1,24.2,"15:59:28",1
"21/06/28","16:10",0.0,25.4,81.6,997.4,332.4,0.8,2.0,334.6,0.02,22.1,24.0,"16:02:48",1
"21/06/28","16:20",0.0,24.9,81.7,997.7,104.3,0.8,2.1,151.6,0.04,21.6,24.1,"16:18:32",1
"21/06/28","16:30",0.0,25.2,81.0,997.4,44.6,0.7,1.7,10.1,0.05,21.7,24.0,"16:29:12",1
"21/06/28","16:40",0.0,25.7,80.6,997.7,337.4,0.8,1.8,327.0,0.06,22.2,24.0,"16:37:52",1
"21/06/28","16:50",0.0,25.6,80.8,997.4,331.0,1.0,1.7,351.5,0.04,22.1,24.2,"16:49:52",1
"21/06/28","17:00",0.0,25.4,81.1,997.7,313.4,0.8,1.8,302.1,0.02,22.0,23.7,"16:57:12",1
"21/06/28","17:10",0.0,25.0,81.7,997.9,281.6,1.5,2.2,332.6,0.01,21.7,24.1,"17:04:48",1
"21/06/28","17:20",0.0,25.1,82.5,997.2,340.0,0.8,1.6,326.2,0.01,21.9,23.9,"17:16:48",1
"21/06/28","17:30",0.0,25.0,83.0,997.4,343.6,0.7,1.8,208.3,0.02,22.0,23.7,"17:20:02",1
"21/06/28","17:40",0.0,24.8,82.4,997.7,203.9,0.7,2.0,220.6,0.02,21.6,24.0,"17:30:32",1
"21/06/28","17:50",0.0,24.9,80.4,997.7,94.5,0.7,2.4,108.6,0.02,21.3,23.8,"17:41:28",1
"21/06/28","18:00",0.0,24.9,76.0,997.9,114.9,1.0,3.7,108.7,0.02,20.4,23.9,"17:50:02",1
"21/06/28","18:10",0.0,25.3,72.1,997.9,93.9,1.0,2.2,116.1,0.02,20.0,24.0,"18:09:04",1
"21/06/28","18:20",0.0,25.3,70.8,997.7,105.5,1.0,2.5,148.2,0.02,19.7,24.1,"18:10:16",1
"21/06/28","18:30",0.0,25.3,70.0,997.4,96.5,0.8,3.2,90.0,0.01,19.5,23.8,"18:24:32",1
"21/06/28","18:40",0.0,25.3,71.0,997.7,65.7,0.7,1.9,114.2,0.00,19.7,23.7,"18:37:20",1
"21/06/28","18:50",0.0,25.1,72.4,997.7,39.1,0.6,2.1,11.7,0.00,19.8,23.7,"18:43:04",1
"21/06/28","19:00",0.0,24.8,73.4,998.2,2.1,0.6,1.4,354.9,0.00,19.8,23.7,"18:57:04",1
"21/06/28","19:10",0.0,24.6,73.6,997.9,52.5,0.8,2.2,108.4,0.00,19.6,23.9,"19:03:04",1
"21/06/28","19:20",0.0,24.6,73.7,997.9,56.7,0.6,1.8,351.2,0.00,19.6,23.9,"19:12:16",1
"21/06/28","19:30",0.0,24.3,74.4,997.9,34.2,0.5,1.3,93.7,0.00,19.5,23.7,"19:22:16",1
"21/06/28","19:40",0.0,24.1,74.8,998.2,358.7,0.5,1.3,320.0,0.00,19.4,23.7,"19:31:12",1
"21/06/28","19:50",0.0,24.2,74.8,998.4,359.7,0.7,2.9,350.3,0.00,19.5,23.6,"19:41:12",1
"21/06/28","20:00",0.0,24.1,74.9,998.2,30.0,0.6,2.2,85.5,0.00,19.4,23.5,"19:59:44",1
"21/06/28","20:10",0.0,24.0,74.3,997.9,90.0,1.0,2.7,128.0,0.00,19.2,23.7,"20:07:52",1
"21/06/28","20:20",0.0,24.2,73.4,997.9,118.2,1.0,3.2,132.4,0.00,19.2,23.5,"20:11:36",1
"21/06/28","20:30",0.0,24.2,73.6,998.2,19.8,0.6,1.8,29.1,0.00,19.2,23.6,"20:29:28",1
"21/06/28","20:40",0.0,24.1,74.2,998.4,345.6,0.6,1.7,351.4,0.00,19.3,23.5,"20:38:16",1
"21/06/28","20:50",0.0,24.0,74.9,998.4,346.3,0.6,1.3,351.9,0.00,19.3,23.4,"20:42:56",1
"21/06/28","21:00",0.0,23.7,75.9,998.6,348.6,1.0,1.7,344.4,0.00,19.2,23.5,"20:54:08",1
"21/06/28","21:10",0.0,23.6,76.1,998.4,9.1,0.6,1.7,348.2,0.00,19.2,23.5,"21:01:04",1
"21/06/28","21:20",0.0,23.5,75.9,998.6,32.0,0.6,1.2,32.6,0.00,19.0,23.6,"21:12:32",1
"21/06/28","21:30",0.0,23.6,75.7,998.4,359.8,0.7,1.3,5.5,0.00,19.1,23.5,"21:29:28",1
"21/06/28","21:40",0.0,23.6,75.4,998.4,40.7,0.6,1.6,8.5,0.00,19.0,23.4,"21:30:08",1
"21/06/28","21:50",0.0,23.5,75.4,998.2,348.7,0.8,1.7,340.5,0.00,18.9,23.3,"21:47:20",1
"21/06/28","22:00",0.0,23.4,75.1,997.9,20.1,0.7,1.4,298.4,0.00,18.8,23.2,"21:53:44",1
"21/06/28","22:10",0.0,23.5,74.8,998.2,22.2,0.6,1.7,109.4,0.00,18.8,23.1,"22:09:44",1
"21/06/28","22:20",0.0,23.6,74.3,998.4,324.6,0.5,1.8,56.9,0.00,18.8,23.4,"22:10:56",1
"21/06/28","22:30",0.0,23.5,74.2,997.9,11.1,0.7,2.0,61.3,0.00,18.7,23.4,"22:23:52",1
"21/06/28","22:40",0.0,23.5,74.4,998.2,331.3,0.6,1.4,333.9,0.00,18.7,23.5,"22:32:40",1
"21/06/28","22:50",0.0,23.5,74.6,997.9,23.4,0.7,2.9,38.3,0.00,18.8,23.3,"22:49:20",1
"21/06/28","23:00",0.0,23.5,74.8,998.2,39.5,0.7,1.6,57.2,0.00,18.8,23.4,"22:50:32",1
"21/06/28","23:10",0.0,23.5,75.2,998.4,35.3,0.5,1.7,157.6,0.00,18.9,23.1,"23:03:20",1
"21/06/28","23:20",0.0,23.4,75.7,998.4,341.7,0.5,1.7,86.7,0.00,18.9,23.2,"23:14:40",1
"21/06/28","23:30",0.0,23.3,76.1,997.9,279.6,0.2,1.2,20.4,0.00,18.9,23.2,"23:29:04",1
"21/06/28","23:40",0.0,23.3,76.4,997.7,346.5,0.5,1.6,52.6,0.00,19.0,23.2,"23:31:04",1
"21/06/28","23:50",0.0,23.3,77.1,997.7,335.4,0.6,1.6,89.0,0.00,19.1,23.2,"23:42:32",1
"21/06/28","24:00",0.0,23.1,77.8,997.7,346.0,0.3,1.1,61.9,0.00,19.1,23.2,"23:57:04",1
